QPF
0.00 0.00 0.00 0.00 0.01 0.00 0.00 0.00 0.00 0.00 0.00 0.00 0.00 0.00 0.00 0.00 0.00 0.00 0.00 0.00 0.00 0.00 0.00 0.00 0.00 0.00 0.00 0.01 0.01 0.01 0.01 0.01 0.01 0.02 0.02 0.02 0.03 0.03
0.00 0.01 0.01 0.01 0.01 0.01 0.00 0.00 0.00 0.00 0.00 0.00 0.00 0.00 0.00 0.00 0.00 0.00 0.00 0.00 0.00 0.00 0.00 0.00 0.00 0.00 0.01 0.01 0.01 0.01 0.02 0.02 0.02 0.03 0.03 0.03 0.04 0.04
0.01 0.01 0.01 0.01 0.01 0.00 0.00 0.00 0.00 0.00 0.00 0.00 0.00 0.00 0.00 0.00 0.00 0.00 0.00 0.00 0.00 0.00 0.00 0.00 0.00 0.00 0.01 0.01 0.01 0.01 0.02 0.02 0.02 0.03 0.03 0.03 0.04 0.04
0.01 0.01 0.01 0.01 0.01 0.00 0.00 0.00 0.00 0.00 0.00 0.00 0.00 0.00 0.00 0.00 0.00 0.00 0.00 0.00 0.00 0.00 0.00 0.00 0.00 0.01 0.01 0.01 0.01 0.01 0.01 0.02 0.02 0.02 0.03 0.03 0.03 0.04
0.01 0.01 0.01 0.00 0.00 0.00 0.00 0.00 0.00 0.00 0.00 0.00 0.00 0.00 0.00 0.00 0.00 0.00 0.00 0.00 0.00 0.00 0.00 0.00 0.00 0.00 0.01 0.01 0.01 0.01 0.01 0.01 0.02 0.02 0.02 0.02 0.02 0.03
0.01 0.00 0.00 0.00 0.00 0.00 0.00 0.00 0.00 0.00 0.00 0.00 0.00 0.00 0.00 0.00 0.00 0.00 0.00 0.00 0.00 0.00 0.00 0.00 0.00 0.00 0.00 0.00 0.01 0.01 0.01 0.01 0.02 0.02 0.02 0.02 0.02 0.03
0.01 0.00 0.00 0.00 0.00 0.00 0.00 0.00 0.00 0.00 0.00 0.00 0.00 0.00 0.00 0.00 0.00 0.00 0.01 0.00 0.00 0.00 0.00 0.00 0.00 0.00 0.00 0.00 0.00 0.00 0.01 0.01 0.02 0.02 0.03 0.03 0.03 0.03
0.00 0.00 0.00 0.00 0.00 0.00 0.00 0.00 0.00 0.00 0.01 0.01 0.01 0.01 0.01 0.00 0.01 0.01 0.01 0.01 0.01 0.00 0.01 0.00 0.00 0.00 0.00 0.00 0.00 0.00 0.01 0.02 0.02 0.02 0.03 0.03 0.02 0.02
0.00 0.00 0.00 0.00 0.00 0.00 0.01 0.01 0.01 0.01 0.01 0.01 0.01 0.01 0.01 0.01 0.01 0.01 0.02 0.02 0.02 0.01 0.01 0.01 0.00 0.00 0.00 0.00 0.00 0.01 0.01 0.02 0.02 0.02 0.02 0.02 0.02 0.02
0.00 0.00 0.00 0.00 0.00 0.00 0.00 0.00 0.01 0.01 0.01 0.00 0.00 0.00 0.01 0.01 0.01 0.02 0.02 0.02 0.01 0.01 0.01 0.01 0.01 0.00 0.00 0.00 0.00 0.00 0.01 0.01 0.01 0.01 0.01 0.02 0.02 0.02
0.00 0.00 0.00 0.00 0.00 0.00 0.01 0.00 0.00 0.00 0.00 0.01 0.01 0.01 0.01 0.01 0.01 0.01 0.01 0.01 0.01 0.00 0.00 0.01 0.01 0.01 0.00 0.00 0.00 0.00 0.00 0.00 0.01 0.01 0.01 0.01 0.01 0.01
0.00 0.00 0.00 0.00 0.01 0.01 0.01 0.01 0.01 0.01 0.01 0.01 0.01 0.00 0.01 0.01 0.01 0.01 0.01 0.01 0.01 0.01 0.00 0.01 0.01 0.01 0.01 0.00 0.00 0.00 0.00 0.00 0.00 0.00 0.00 0.00 0.01 0.01
0.00 0.00 0.00 0.00 0.01 0.01 0.01 0.00 0.01 0.01 0.01 0.01 0.01 0.01 0.01 0.01 0.00 0.00 0.01 0.01 0.02 0.02 0.01 0.02 0.02 0.02 0.03 0.01 0.00 0.00 0.00 0.00 0.00 0.00 0.00 0.00 0.00 0.01
0.00 0.00 0.00 0.01 0.01 0.01 0.00 0.00 0.00 0.01 0.00 0.00 0.00 0.00 0.00 0.01 0.00 0.00 0.00 0.00 0.01 0.01 0.01 0.02 0.03 0.03 0.03 0.02 0.01 0.00 0.00 0.00 0.00 0.00 0.00 0.00 0.00 0.00
0.00 0.00 0.00 0.00 0.00 0.00 0.00 0.00 0.00 0.00 0.00 0.01 0.01 0.01 0.01 0.01 0.00 0.00 0.00 0.00 0.00 0.00 0.01 0.01 0.02 0.02 0.02 0.02 0.01 0.00 0.00 0.00 0.00 0.00 0.00 0.00 0.00 0.01
0.00 0.00 0.00 0.00 0.00 0.00 0.00 0.00 0.00 0.00 0.01 0.01 0.01 0.01 0.01 0.00 0.00 0.00 0.00 0.01 0.01 0.01 0.00 0.00 0.01 0.01 0.02 0.01 0.01 0.01 0.00 0.00 0.00 0.00 0.00 0.00 0.00 0.01
0.00 0.00 0.00 0.00 0.00 0.00 0.00 0.00 0.00 0.00 0.01 0.01 0.01 0.01 0.01 0.00 0.00 0.00 0.00 0.01 0.01 0.01 0.01 0.00 0.01 0.01 0.01 0.01 0.01 0.00 0.00 0.00 0.00 0.00 0.00 0.00 0.00 0.01
0.00 0.00 0.00 0.00 0.00 0.00 0.00 0.00 0.01 0.01 0.01 0.01 0.01 0.01 0.01 0.01 0.00 0.00 0.00 0.01 0.01 0.01 0.01 0.01 0.01 0.01 0.00 0.00 0.00 0.00 0.00 0.00 0.00 0.00 0.00 0.01 0.00 0.01
0.00 0.00 0.00 0.00 0.00 0.00 0.00 0.01 0.01 0.01 0.01 0.01 0.01 0.01 0.01 0.01 0.01 0.01 0.01 0.01 0.01 0.01 0.01 0.01 0.01 0.01 0.01 0.00 0.00 0.00 0.00 0.00 0.00 0.00 0.00 0.01 0.02 0.01
0.00 0.00 0.00 0.00 0.00 0.00 0.01 0.01 0.01 0.00 0.00 0.00 0.01 0.01 0.01 0.01 0.01 0.01 0.01 0.01 0.01 0.01 0.01 0.01 0.01 0.01 0.02 0.01 0.01 0.00 0.00 0.00 0.01 0.01 0.00 0.00 0.01 0.01
0.00 0.00 0.00 0.00 0.00 0.00 0.00 0.00 0.00 0.00 0.00 0.01 0.01 0.01 0.01 0.01 0.01 0.01 0.01 0.01 0.01 0.01 0.01 0.01 0.01 0.01 0.01 0.01 0.01 0.00 0.00 0.00 0.01 0.01 0.01 0.01 0.01 0.00
0.00 0.00 0.00 0.00 0.00 0.00 0.00 0.00 0.00 0.00 0.00 0.00 0.00 0.00 0.01 0.01 0.01 0.01 0.01 0.01 0.01 0.01 0.01 0.01 0.01 0.01 0.01 0.01 0.01 0.00 0.00 0.00 0.00 0.00 0.01 0.02 0.03 0.03
0.00 0.00 0.00 0.00 0.00 0.00 0.00 0.00 0.00 0.00 0.00 0.00 0.01 0.01 0.01 0.02 0.02 0.01 0.01 0.01 0.01 0.01 0.01 0.01 0.01 0.01 0.01 0.01 0.01 0.01 0.00 0.00 0.00 0.00 0.01 0.01 0.01 0.02
MSLP
1019.91 1020.11 1020.32 1020.51 1020.66 1020.76 1020.79 1020.74 1020.64 1020.50 1020.35 1020.20 1020.06 1019.96 1019.89 1019.83 1019.78 1019.72 1019.63 1019.50 1019.31 1019.08 1018.80 1018.47 1018.12 1017.75 1017.37 1016.99 1016.63 1016.30 1015.98 1015.70 1015.43 1015.18 1014.94 1014.70 1014.45 1014.18
1019.56 1019.80 1020.05 1020.29 1020.51 1020.68 1020.77 1020.80 1020.74 1020.62 1020.45 1020.25 1020.04 1019.84 1019.65 1019.47 1019.30 1019.14 1018.97 1018.78 1018.57 1018.33 1018.06 1017.76 1017.44 1017.10 1016.76 1016.41 1016.07 1015.74 1015.43 1015.14 1014.86 1014.60 1014.35 1014.10 1013.83 1013.55
1019.19 1019.44 1019.72 1020.01 1020.28 1020.51 1020.68 1020.76 1020.75 1020.65 1020.48 1020.25 1019.98 1019.69 1019.40 1019.11 1018.83 1018.56 1018.31 1018.06 1017.80 1017.55 1017.28 1017.01 1016.72 1016.41 1016.10 1015.78 1015.46 1015.15 1014.84 1014.56 1014.28 1014.01 1013.75 1013.48 1013.20 1012.90
1018.78 1019.05 1019.35 1019.66 1019.97 1020.24 1020.45 1020.57 1020.61 1020.54 1020.38 1020.14 1019.83 1019.48 1019.11 1018.73 1018.36 1018.01 1017.68 1017.37 1017.08 1016.81 1016.54 1016.27 1016.00 1015.72 1015.43 1015.14 1014.84 1014.55 1014.26 1013.97 1013.70 1013.43 1013.16 1012.88 1012.59 1012.28
1018.35 1018.62 1018.92 1019.24 1019.55 1019.84 1020.08 1020.23 1020.30 1020.26 1020.11 1019.87 1019.55 1019.18 1018.76 1018.33 1017.91 1017.50 1017.12 1016.78 1016.46 1016.16 1015.89 1015.62 1015.35 1015.08 1014.80 1014.52 1014.23 1013.94 1013.66 1013.38 1013.11 1012.85 1012.59 1012.31 1012.02 1011.72
1017.90 1018.16 1018.45 1018.75 1019.06 1019.34 1019.57 1019.74 1019.81 1019.79 1019.66 1019.44 1019.13 1018.76 1018.34 1017.90 1017.46 1017.04 1016.64 1016.28 1015.95 1015.64 1015.35 1015.07 1014.79 1014.51 1014.21 1013.92 1013.62 1013.33 1013.04 1012.77 1012.51 1012.26 1012.01 1011.76 1011.48 1011.19
1017.44 1017.69 1017.96 1018.23 1018.51 1018.76 1018.97 1019.13 1019.20 1019.18 1019.07 1018.87 1018.59 1018.24 1017.85 1017.44 1017.03 1016.62 1016.24 1015.89 1015.55 1015.24 1014.93 1014.63 1014.32 1014.01 1013.68 1013.35 1013.02 1012.70 1012.40 1012.12 1011.87 1011.64 1011.41 1011.18 1010.94 1010.67
1016.97 1017.21 1017.45 1017.69 1017.93 1018.14 1018.32 1018.45 1018.50 1018.48 1018.38 1018.20 1017.96 1017.66 1017.32 1016.96 1016.60 1016.25 1015.91 1015.58 1015.26 1014.95 1014.63 1014.30 1013.95 1013.58 1013.20 1012.81 1012.43 1012.07 1011.74 1011.44 1011.19 1010.97 1010.76 1010.57 1010.36 1010.14
1016.50 1016.72 1016.94 1017.15 1017.35 1017.52 1017.66 1017.75 1017.78 1017.75 1017.66 1017.50 1017.29 1017.05 1016.77 1016.48 1016.19 1015.90 1015.62 1015.33 1015.04 1014.73 1014.40 1014.04 1013.64 1013.21 1012.76 1012.31 1011.86 1011.45 1011.07 1010.75 1010.48 1010.26 1010.08 1009.91 1009.75 1009.56
1016.02 1016.24 1016.44 1016.63 1016.80 1016.93 1017.03 1017.09 1017.09 1017.05 1016.96 1016.82 1016.65 1016.46 1016.24 1016.03 1015.80 1015.58 1015.36 1015.12 1014.86 1014.56 1014.22 1013.83 1013.39 1012.90 1012.39 1011.86 1011.35 1010.87 1010.44 1010.08 1009.79 1009.56 1009.38 1009.24 1009.10 1008.94
1015.55 1015.76 1015.96 1016.13 1016.27 1016.38 1016.45 1016.48 1016.47 1016.42 1016.33 1016.21 1016.07 1015.92 1015.76 1015.60 1015.44 1015.28 1015.10 1014.91 1014.67 1014.39 1014.05 1013.64 1013.17 1012.64 1012.07 1011.49 1010.91 1010.37 1009.89 1009.49 1009.16 1008.91 1008.72 1008.57 1008.44 1008.30
1015.08 1015.30 1015.49 1015.65 1015.78 1015.88 1015.93 1015.95 1015.93 1015.88 1015.80 1015.69 1015.58 1015.46 1015.34 1015.22 1015.10 1014.98 1014.85 1014.68 1014.47 1014.20 1013.87 1013.45 1012.97 1012.42 1011.82 1011.20 1010.59 1010.00 1009.47 1009.02 1008.65 1008.36 1008.14 1007.97 1007.83 1007.68
1014.64 1014.86 1015.04 1015.20 1015.33 1015.42 1015.47 1015.49 1015.47 1015.42 1015.35 1015.26 1015.17 1015.07 1014.98 1014.89 1014.80 1014.70 1014.58 1014.43 1014.24 1013.98 1013.66 1013.25 1012.78 1012.23 1011.63 1011.00 1010.37 1009.75 1009.19 1008.69 1008.27 1007.93 1007.66 1007.45 1007.27 1007.09
1014.26 1014.47 1014.64 1014.80 1014.92 1015.01 1015.06 1015.08 1015.07 1015.04 1014.98 1014.92 1014.84 1014.76 1014.68 1014.60 1014.51 1014.42 1014.30 1014.16 1013.97 1013.72 1013.41 1013.03 1012.57 1012.05 1011.48 1010.86 1010.23 1009.61 1009.02 1008.49 1008.02 1007.62 1007.28 1007.01 1006.77 1006.55
1013.96 1014.15 1014.31 1014.45 1014.56 1014.64 1014.69 1014.72 1014.73 1014.71 1014.68 1014.64 1014.58 1014.51 1014.44 1014.36 1014.26 1014.15 1014.02 1013.86 1013.67 1013.42 1013.13 1012.77 1012.35 1011.86 1011.32 1010.74 1010.14 1009.52 1008.92 1008.36 1007.84 1007.37 1006.96 1006.61 1006.30 1006.02
1013.77 1013.93 1014.06 1014.17 1014.26 1014.33 1014.38 1014.41 1014.43 1014.43 1014.43 1014.40 1014.37 1014.31 1014.24 1014.15 1014.04 1013.91 1013.75 1013.56 1013.35 1013.10 1012.81 1012.47 1012.08 1011.64 1011.15 1010.61 1010.03 1009.43 1008.83 1008.23 1007.66 1007.13 1006.64 1006.21 1005.82 1005.47
1013.71 1013.82 1013.91 1013.99 1014.04 1014.08 1014.12 1014.15 1014.17 1014.20 1014.21 1014.21 1014.19 1014.15 1014.08 1013.98 1013.85 1013.69 1013.49 1013.28 1013.04 1012.77 1012.47 1012.14 1011.78 1011.37 1010.92 1010.41 1009.86 1009.28 1008.67 1008.04 1007.43 1006.83 1006.26 1005.74 1005.28 1004.86
1013.76 1013.83 1013.87 1013.89 1013.91 1013.91 1013.92 1013.94 1013.97 1014.00 1014.03 1014.05 1014.06 1014.03 1013.96 1013.85 1013.70 1013.51 1013.28 1013.02 1012.75 1012.45 1012.14 1011.81 1011.45 1011.06 1010.63 1010.15 1009.62 1009.04 1008.41 1007.76 1007.09 1006.43 1005.78 1005.19 1004.65 1004.17
1013.90 1013.92 1013.92 1013.89 1013.85 1013.82 1013.80 1013.80 1013.81 1013.85 1013.89 1013.93 1013.95 1013.93 1013.87 1013.76 1013.59 1013.37 1013.11 1012.82 1012.50 1012.18 1011.84 1011.50 1011.13 1010.75 1010.32 1009.85 1009.32 1008.73 1008.08 1007.39 1006.67 1005.94 1005.22 1004.55 1003.94 1003.40
1014.10 1014.08 1014.03 1013.95 1013.87 1013.79 1013.74 1013.71 1013.72 1013.75 1013.80 1013.85 1013.88 1013.87 1013.81 1013.69 1013.51 1013.28 1012.99 1012.67 1012.33 1011.98 1011.61 1011.25 1010.87 1010.47 1010.04 1009.55 1009.01 1008.40 1007.72 1006.99 1006.21 1005.42 1004.64 1003.89 1003.21 1002.62
1014.31 1014.26 1014.16 1014.05 1013.93 1013.82 1013.73 1013.69 1013.68 1013.70 1013.75 1013.79 1013.82 1013.82 1013.76 1013.64 1013.46 1013.22 1012.92 1012.59 1012.23 1011.86 1011.48 1011.09 1010.70 1010.28 1009.83 1009.33 1008.76 1008.12 1007.41 1006.63 1005.80 1004.95 1004.10 1003.29 1002.54 1001.88
1014.49 1014.41 1014.29 1014.15 1014.00 1013.87 1013.76 1013.70 1013.67 1013.68 1013.72 1013.76 1013.78 1013.78 1013.72 1013.61 1013.43 1013.19 1012.90 1012.56 1012.20 1011.83 1011.44 1011.05 1010.64 1010.22 1009.75 1009.23 1008.64 1007.97 1007.22 1006.40 1005.52 1004.62 1003.70 1002.83 1002.01 1001.28
1014.59 1014.50 1014.37 1014.22 1014.06 1013.92 1013.80 1013.72 1013.68 1013.68 1013.70 1013.72 1013.74 1013.72 1013.67 1013.56 1013.39 1013.16 1012.88 1012.57 1012.23 1011.87 1011.50 1011.12 1010.72 1010.29 1009.82 1009.28 1008.67 1007.98 1007.21 1006.36 1005.44 1004.48 1003.52 1002.58 1001.69 1000.89
Thickness
5555 5549 5543 5538 5532 5527 5521 5515 5510 5510 5514 5510 5500 5493 5484 5478 5473 5468 5464 5460 5455 5450 5447 5443 5439 5436 5433 5430 5428 5426 5424 5422 5420 5419 5419 5420 5421 5422
5549 5543 5537 5531 5525 5519 5512 5506 5501 5497 5497 5498 5490 5482 5475 5468 5462 5457 5453 5448 5444 5439 5435 5431 5426 5423 5419 5416 5413 5410 5408 5406 5404 5403 5402 5403 5403 5404
5542 5536 5531 5524 5517 5511 5504 5498 5492 5487 5484 5485 5478 5472 5464 5457 5452 5446 5441 5436 5433 5427 5422 5417 5413 5409 5405 5401 5398 5395 5392 5390 5387 5386 5384 5384 5385 5386
5537 5530 5524 5516 5510 5504 5497 5491 5485 5479 5473 5472 5469 5461 5454 5447 5441 5435 5429 5423 5418 5414 5408 5403 5398 5394 5390 5386 5383 5379 5376 5373 5370 5368 5367 5366 5367 5367
5531 5524 5517 5510 5504 5497 5490 5483 5477 5470 5464 5460 5457 5450 5443 5435 5429 5423 5416 5410 5405 5399 5394 5390 5385 5380 5375 5371 5367 5363 5360 5357 5354 5352 5350 5349 5349 5350
5524 5517 5511 5503 5497 5490 5483 5476 5469 5462 5455 5449 5444 5438 5431 5423 5416 5411 5406 5399 5393 5387 5382 5376 5371 5366 5362 5357 5353 5349 5345 5342 5339 5337 5335 5334 5334 5334
5516 5510 5503 5496 5489 5482 5475 5467 5459 5452 5445 5438 5432 5426 5419 5411 5404 5397 5391 5386 5381 5374 5369 5364 5358 5354 5349 5345 5340 5336 5331 5328 5325 5323 5321 5320 5320 5320
5509 5502 5495 5487 5480 5472 5465 5457 5449 5442 5434 5427 5420 5414 5408 5400 5391 5383 5376 5371 5368 5363 5355 5351 5345 5342 5338 5333 5328 5323 5319 5316 5313 5311 5309 5307 5307 5307
5501 5495 5487 5479 5471 5464 5456 5447 5439 5430 5422 5415 5408 5402 5395 5387 5379 5371 5362 5355 5352 5347 5341 5339 5334 5331 5326 5322 5316 5312 5308 5304 5301 5299 5297 5296 5295 5295
5492 5486 5479 5471 5463 5455 5447 5439 5430 5422 5413 5404 5397 5390 5381 5373 5364 5356 5349 5343 5338 5333 5327 5324 5323 5319 5315 5311 5307 5302 5297 5293 5291 5289 5287 5286 5285 5285
5483 5476 5469 5462 5453 5445 5437 5429 5421 5413 5402 5392 5384 5376 5367 5358 5349 5341 5335 5329 5326 5323 5316 5310 5309 5306 5303 5302 5298 5293 5288 5285 5283 5281 5279 5278 5277 5277
5475 5467 5458 5451 5443 5434 5427 5419 5410 5402 5392 5383 5374 5365 5356 5347 5338 5329 5322 5315 5311 5308 5305 5296 5294 5291 5292 5292 5287 5284 5281 5279 5276 5274 5273 5271 5270 5270
5466 5458 5449 5440 5432 5424 5416 5408 5399 5389 5381 5372 5363 5354 5345 5336 5327 5318 5310 5302 5297 5293 5289 5283 5281 5277 5274 5277 5277 5275 5274 5272 5271 5270 5268 5267 5265 5264
5457 5449 5440 5430 5421 5413 5405 5396 5386 5377 5369 5360 5352 5343 5335 5326 5317 5309 5301 5293 5287 5282 5277 5271 5268 5265 5264 5264 5267 5268 5266 5265 5265 5264 5264 5263 5263 5262
5446 5437 5429 5419 5411 5403 5394 5385 5375 5366 5357 5348 5340 5332 5324 5315 5307 5300 5293 5286 5280 5275 5270 5264 5260 5257 5255 5255 5257 5259 5259 5260 5260 5259 5259 5259 5260 5260
5434 5426 5417 5409 5400 5391 5383 5374 5365 5355 5346 5337 5328 5320 5312 5305 5299 5292 5285 5279 5274 5270 5264 5259 5254 5251 5251 5251 5251 5252 5253 5254 5255 5255 5255 5256 5257 5259
5424 5416 5408 5400 5391 5382 5373 5364 5354 5344 5335 5326 5317 5310 5302 5296 5289 5283 5277 5272 5268 5264 5261 5256 5251 5248 5247 5246 5247 5249 5250 5250 5251 5251 5251 5254 5256 5258
5414 5406 5399 5391 5382 5372 5363 5353 5343 5334 5325 5315 5307 5300 5294 5287 5281 5276 5270 5266 5262 5259 5255 5252 5248 5247 5247 5248 5245 5244 5245 5246 5247 5248 5248 5251 5255 5258
5404 5397 5389 5380 5371 5361 5351 5341 5332 5323 5314 5306 5298 5292 5285 5279 5274 5269 5264 5260 5256 5253 5250 5247 5244 5241 5242 5244 5246 5242 5241 5242 5244 5246 5248 5249 5252 5256
5394 5386 5378 5369 5360 5350 5340 5331 5322 5313 5305 5298 5290 5284 5278 5272 5267 5263 5259 5254 5251 5248 5246 5243 5240 5237 5235 5236 5238 5239 5239 5239 5241 5244 5246 5248 5252 5255
5384 5376 5367 5358 5349 5339 5330 5321 5312 5304 5297 5290 5283 5277 5271 5266 5261 5257 5253 5249 5246 5243 5241 5240 5237 5233 5231 5231 5234 5238 5240 5239 5239 5240 5243 5247 5251 5257
5374 5365 5356 5348 5338 5329 5320 5311 5303 5296 5289 5282 5277 5271 5266 5260 5256 5251 5248 5245 5242 5240 5238 5236 5233 5232 5231 5231 5233 5236 5238 5239 5240 5241 5243 5244 5246 5252
5363 5355 5346 5337 5328 5319 5311 5303 5295 5289 5282 5276 5271 5265 5260 5255 5251 5247 5244 5241 5238 5236 5234 5233 5232 5231 5230 5230 5231 5233 5234 5236 5240 5242 5245 5247 5248 5250